OPS 4682 DEB, 38411

Orbit data source: Space-Track

OPS 4682 DEB, 38411 is space debris in LEO originally from a launch on Sat, 03 Apr 1965 UTC launched from the Air Force Western Test Range (AFWTR). Debris objects in space refer to the collection of defunct objects orbiting the Earth. Examples of debris include non-operational satellites, rocket bodies, and fragments generated from explosions, collisions, or faulty payload assembly.

Loading next visibility...
Identifier
38411, 1965-027DQ
Orbit
LEO
Country
Flag of USUS
Related business
Manufacturer
Unknown
Mission
Spacecraft
Bus & Motor
Unknown
Mass
Unknown
Launch date (UTC)
1965-04-03 (61 years ago)
Launch vehicle
Unknown
Launch site
Air Force Western Test Range (AFWTR)
Object type
Payload
Rocket body
Debris
Shape & HBR
Unknown shape, 0.1 m
Radar Cross Section
Medium (>0.1 m² and <1 m²)

Expand to show TLE details & history
Last TLE update: 2 days ago

TLE from 2 days ago
0 OPS 4682 DEB
1 38411U 65027DQ  26149.59503084  .00000145  00000-0  47613-3 0  9997
2 38411  90.2548  15.6684 0039541 137.3552 223.0649 12.96895595660462
Epoch: 2026-05-29T14:16Z
TLE epoch observation values (Epoch: 2026-05-29T14:16:50.664Z)
Latitude
-0.00008°
Longitude
-85.66586°
Altitude
1,299.319 km
Speed
7.196 km/s
True Right ascension
01h 02m 40s
True Declination
0° 00' 00"
Sunlit
Object was in daylight at epoch
Visualization orbit readout
Latitude
Unknown
Longitude
Unknown
Altitude
Unknown
Speed
Unknown
Apparent Right ascension
Unknown
Apparent Declination
Unknown
Sunlit
N/A
Visualization observer readout
Local Sidereal Time
13:40:37
Azimuth
Unknown
Elevation
Unknown
Doppler factor
Unknown
Orbital elements
Apogee altitude
1,301.653 km
Perigee altitude
1,241.159 km
Semi-major axis
7,649.543 km
Eccentricity
0.00395
Inclination
90.2548°
RAAN
15.6684°
Arg. of periapsis
137.3552°
True anomaly
222.75662°
Mean anomaly
223.0649°
Eccentric anomaly
222.91065°
Mean motion
3.24407 °/min
Orbital period
110.97 mins
BSTAR
0.00047613
Loading maneuver chart data...
Computing Atmospheric mass density...
Loading historical data...
Loading historical data...
Loading historical data...
Loading historical data...
Loading historical data...
Loading historical data...
Loading historical data...

Documentation

Showing up to 5 results
|